date,time,humid
2019-10-01,00:00,78.8
2019-10-01,01:00,77.9
2019-10-01,02:00,77.1
2019-10-01,03:00,77.2
2019-10-01,04:00,78
2019-10-01,05:00,77.9
2019-10-01,06:00,75.4
2019-10-01,07:00,78.3
2019-10-01,08:00,75.4
2019-10-01,09:00,76.4
2019-10-01,10:00,72.9
2019-10-01,11:00,68.8
2019-10-01,12:00,60.2
2019-10-01,13:00,62.2
2019-10-01,14:00,58.7
2019-10-01,15:00,62.9
2019-10-01,16:00,64.4
2019-10-01,17:00,70.5
2019-10-01,18:00,70.5
2019-10-01,19:00,74.6
2019-10-01,20:00,75.4
2019-10-01,21:00,77.5
2019-10-01,22:00,77.8
2019-10-01,23:00,77.3
2019-10-02,00:00,78.5
2019-10-02,01:00,80
2019-10-02,02:00,71.6
2019-10-02,03:00,70.5
2019-10-02,04:00,65.6
2019-10-02,05:00,66.6
2019-10-02,06:00,68.7
2019-10-02,07:00,69.7
2019-10-02,08:00,68
2019-10-02,09:00,61.8
2019-10-02,10:00,58
2019-10-02,11:00,56.4
2019-10-02,12:00,61.9
2019-10-02,13:00,60
2019-10-02,14:00,61.8
2019-10-02,15:00,68.1
2019-10-02,16:00,61.4
2019-10-02,17:00,65.5
2019-10-02,18:00,69.8
2019-10-02,19:00,75.3
2019-10-02,20:00,74.3
2019-10-02,21:00,77.7
2019-10-02,22:00,78.3
2019-10-02,23:00,78.5
2019-10-03,00:00,78.8
2019-10-03,01:00,79.2
2019-10-03,02:00,81.1
2019-10-03,03:00,79.6
2019-10-03,04:00,79.6
2019-10-03,05:00,79.8
2019-10-03,06:00,82.2
2019-10-03,07:00,82.4
2019-10-03,08:00,79.3
2019-10-03,09:00,68.7
2019-10-03,10:00,60.6
2019-10-03,11:00,56.2
2019-10-03,12:00,-999
2019-10-03,13:00,61.2
2019-10-03,14:00,55.1
2019-10-03,15:00,-999
2019-10-03,16:00,59
2019-10-03,17:00,62.4
2019-10-03,18:00,70.2
2019-10-03,19:00,70.1
2019-10-03,20:00,74.5
2019-10-03,21:00,78.1
2019-10-03,22:00,66.9
2019-10-03,23:00,64.8
2019-10-04,00:00,66.1
2019-10-04,01:00,67.7
2019-10-04,02:00,67.4
2019-10-04,03:00,68.5
2019-10-04,04:00,72.2
2019-10-04,05:00,77.1
2019-10-04,06:00,78
2019-10-04,07:00,77.8
2019-10-04,08:00,74.8
2019-10-04,09:00,67.5
2019-10-04,10:00,66.5
2019-10-04,11:00,64.8
2019-10-04,12:00,80
2019-10-04,13:00,76.4
2019-10-04,14:00,76.7
2019-10-04,15:00,71.5
2019-10-04,16:00,66.7
2019-10-04,17:00,69.9
2019-10-04,18:00,74
2019-10-04,19:00,73.9
2019-10-04,20:00,75.5
2019-10-04,21:00,74.8
2019-10-04,22:00,75.9
2019-10-04,23:00,-999
2019-10-05,00:00,78.5
2019-10-05,01:00,78.8
2019-10-05,02:00,79.8
2019-10-05,03:00,80.5
2019-10-05,04:00,80.6
2019-10-05,05:00,80.9
2019-10-05,06:00,81.9
2019-10-05,07:00,82.2
2019-10-05,08:00,77
2019-10-05,09:00,68.8
2019-10-05,10:00,69.5
2019-10-05,11:00,69.7
2019-10-05,12:00,63
2019-10-05,13:00,82
2019-10-05,14:00,65.8
2019-10-05,15:00,65.6
2019-10-05,16:00,70.2
2019-10-05,17:00,72.7
2019-10-05,18:00,76.4
2019-10-05,19:00,78.1
2019-10-05,20:00,75.1
2019-10-05,21:00,77.5
2019-10-05,22:00,77.2
2019-10-05,23:00,78.8
2019-10-06,00:00,80.2
2019-10-06,01:00,80.7
2019-10-06,02:00,82.2
2019-10-06,03:00,-999
2019-10-06,04:00,-999
2019-10-06,05:00,-999
2019-10-06,06:00,-999
2019-10-06,07:00,-999
2019-10-06,08:00,-999
2019-10-06,09:00,70
2019-10-06,10:00,58.2
2019-10-06,11:00,57.9
2019-10-06,12:00,57.4
2019-10-06,13:00,55.3
2019-10-06,14:00,57
2019-10-06,15:00,74.5
2019-10-06,16:00,70.3
2019-10-06,17:00,71.7
2019-10-06,18:00,77.2
2019-10-06,19:00,82.1
2019-10-06,20:00,81
2019-10-06,21:00,79.6
2019-10-06,22:00,79.1
2019-10-06,23:00,78.7
2019-10-07,00:00,78.2
2019-10-07,01:00,-999
2019-10-07,02:00,-999
2019-10-07,03:00,-999
2019-10-07,04:00,-999
2019-10-07,05:00,-999
2019-10-07,06:00,-999
2019-10-07,07:00,-999
2019-10-07,08:00,-999
2019-10-07,09:00,70.9
2019-10-07,10:00,69.5
2019-10-07,11:00,57.5
2019-10-07,12:00,57.4
2019-10-07,13:00,52.4
2019-10-07,14:00,61
2019-10-07,15:00,65.8
2019-10-07,16:00,68
2019-10-07,17:00,75.9
2019-10-07,18:00,74.3
2019-10-07,19:00,73.2
2019-10-07,20:00,74.4
2019-10-07,21:00,78.2
2019-10-07,22:00,78.3
2019-10-07,23:00,76
2019-10-08,00:00,75.6
2019-10-08,01:00,76.3
2019-10-08,02:00,78
2019-10-08,03:00,80.2
2019-10-08,04:00,-999
2019-10-08,05:00,-999
2019-10-08,06:00,-999
2019-10-08,07:00,-999
2019-10-08,08:00,-999
2019-10-08,09:00,-999
2019-10-08,10:00,64.5
2019-10-08,11:00,60.1
2019-10-08,12:00,57.3
2019-10-08,13:00,53.9
2019-10-08,14:00,46.5
2019-10-08,15:00,47.1
2019-10-08,16:00,54.2
2019-10-08,17:00,65.3
2019-10-08,18:00,64.5
2019-10-08,19:00,68.8
2019-10-08,20:00,71.3
2019-10-08,21:00,70.3
2019-10-08,22:00,74.2
2019-10-08,23:00,75.6
2019-10-09,00:00,75
2019-10-09,01:00,76.7
2019-10-09,02:00,75.7
2019-10-09,03:00,-999
2019-10-09,04:00,-999
2019-10-09,05:00,-999
2019-10-09,06:00,-999
2019-10-09,07:00,-999
2019-10-09,08:00,76.9
2019-10-09,09:00,70.5
2019-10-09,10:00,66.3
2019-10-09,11:00,63.1
2019-10-09,12:00,55.9
2019-10-09,13:00,55.4
2019-10-09,14:00,53
2019-10-09,15:00,66.5
2019-10-09,16:00,85.6
2019-10-09,17:00,86.2
2019-10-09,18:00,82.9
2019-10-09,19:00,81.1
2019-10-09,20:00,80.8
2019-10-09,21:00,78.8
2019-10-09,22:00,78.6
2019-10-09,23:00,80
2019-10-10,00:00,-999
2019-10-10,01:00,-999
2019-10-10,02:00,-999
2019-10-10,03:00,-999
2019-10-10,04:00,-999
2019-10-10,05:00,-999
2019-10-10,06:00,-999
2019-10-10,07:00,-999
2019-10-10,08:00,-999
2019-10-10,09:00,73.4
2019-10-10,10:00,66.6
2019-10-10,11:00,60.4
2019-10-10,12:00,55.8
2019-10-10,13:00,53.5
2019-10-10,14:00,57.9
2019-10-10,15:00,70.5
2019-10-10,16:00,67.4
2019-10-10,17:00,67.8
2019-10-10,18:00,71.8
2019-10-10,19:00,69.4
2019-10-10,20:00,74.2
2019-10-10,21:00,-999
2019-10-10,22:00,-999
2019-10-10,23:00,-999
2019-10-11,00:00,-999
2019-10-11,01:00,-999
2019-10-11,02:00,-999
2019-10-11,03:00,-999
2019-10-11,04:00,-999
2019-10-11,05:00,-999
2019-10-11,06:00,-999
2019-10-11,07:00,-999
2019-10-11,08:00,72
2019-10-11,09:00,-999
2019-10-11,10:00,57.3
2019-10-11,11:00,56.2
2019-10-11,12:00,57.3
2019-10-11,13:00,52.5
2019-10-11,14:00,49.7
2019-10-11,15:00,54.7
2019-10-11,16:00,57.8
2019-10-11,17:00,63.3
2019-10-11,18:00,66.3
2019-10-11,19:00,63.5
2019-10-11,20:00,67.3
2019-10-11,21:00,69.1
2019-10-11,22:00,-999
2019-10-11,23:00,-999
2019-10-12,00:00,-999
2019-10-12,01:00,-999
2019-10-12,02:00,-999
2019-10-12,03:00,-999
2019-10-12,04:00,-999
2019-10-12,05:00,-999
2019-10-12,06:00,-999
2019-10-12,07:00,-999
2019-10-12,08:00,-999
2019-10-12,09:00,70.9
2019-10-12,10:00,65.8
2019-10-12,11:00,63.8
2019-10-12,12:00,55.5
2019-10-12,13:00,56.5
2019-10-12,14:00,69.7
2019-10-12,15:00,73.2
2019-10-12,16:00,65.4
2019-10-12,17:00,65.1
2019-10-12,18:00,63.5
2019-10-12,19:00,71
2019-10-12,20:00,80.1
2019-10-12,21:00,77.8
2019-10-12,22:00,77
2019-10-12,23:00,-999
2019-10-13,00:00,-999
2019-10-13,01:00,-999
2019-10-13,02:00,-999
2019-10-13,03:00,-999
2019-10-13,04:00,-999
2019-10-13,05:00,-999
2019-10-13,06:00,-999
2019-10-13,07:00,-999
2019-10-13,08:00,76.7
2019-10-13,09:00,71.6
2019-10-13,10:00,69.5
2019-10-13,11:00,57.2
2019-10-13,12:00,53.1
2019-10-13,13:00,48.8
2019-10-13,14:00,53.9
2019-10-13,15:00,51
2019-10-13,16:00,53.9
2019-10-13,17:00,62.9
2019-10-13,18:00,67.9
2019-10-13,19:00,70.3
2019-10-13,20:00,80.5
2019-10-13,21:00,81.4
2019-10-13,22:00,85.4
2019-10-13,23:00,-999
2019-10-14,00:00,-999
2019-10-14,01:00,-999
2019-10-14,02:00,-999
2019-10-14,03:00,-999
2019-10-14,04:00,-999
2019-10-14,05:00,-999
2019-10-14,06:00,-999
2019-10-14,07:00,-999
2019-10-14,08:00,-999
2019-10-14,09:00,80.7
2019-10-14,10:00,69.8
2019-10-14,11:00,59.5
2019-10-14,12:00,57.9
2019-10-14,13:00,53.2
2019-10-14,14:00,55.3
2019-10-14,15:00,52.1
2019-10-14,16:00,50
2019-10-14,17:00,53.1
2019-10-14,18:00,71.7
2019-10-14,19:00,72
2019-10-14,20:00,72.9
2019-10-14,21:00,71.6
2019-10-14,22:00,-999
2019-10-14,23:00,-999
2019-10-15,00:00,-999
2019-10-15,01:00,-999
2019-10-15,02:00,-999
2019-10-15,03:00,-999
2019-10-15,04:00,-999
2019-10-15,05:00,-999
2019-10-15,06:00,-999
2019-10-15,07:00,-999
2019-10-15,08:00,-999
2019-10-15,09:00,-999
2019-10-15,10:00,61.6
2019-10-15,11:00,56.5
2019-10-15,12:00,50.6
2019-10-15,13:00,55.2
2019-10-15,14:00,50.8
2019-10-15,15:00,51.2
2019-10-15,16:00,48.2
2019-10-15,17:00,52
2019-10-15,18:00,58.1
2019-10-15,19:00,63.3
2019-10-15,20:00,77.4
2019-10-15,21:00,80.1
2019-10-15,22:00,79.7
2019-10-15,23:00,-999
2019-10-16,00:00,-999
2019-10-16,01:00,-999
2019-10-16,02:00,-999
2019-10-16,03:00,-999
2019-10-16,04:00,-999
2019-10-16,05:00,-999
2019-10-16,06:00,-999
2019-10-16,07:00,-999
2019-10-16,08:00,-999
2019-10-16,09:00,-999
2019-10-16,10:00,60.8
2019-10-16,11:00,60.1
2019-10-16,12:00,57.8
2019-10-16,13:00,55.1
2019-10-16,14:00,54.5
2019-10-16,15:00,54.6
2019-10-16,16:00,53.3
2019-10-16,17:00,54.7
2019-10-16,18:00,62.6
2019-10-16,19:00,65.8
2019-10-16,20:00,66.7
2019-10-16,21:00,-999
2019-10-16,22:00,-999
2019-10-16,23:00,-999
2019-10-17,00:00,-999
2019-10-17,01:00,-999
2019-10-17,02:00,-999
2019-10-17,03:00,-999
2019-10-17,04:00,-999
2019-10-17,05:00,-999
2019-10-17,06:00,-999
2019-10-17,07:00,-999
2019-10-17,08:00,-999
2019-10-17,09:00,-999
2019-10-17,10:00,59.2
2019-10-17,11:00,55.1
2019-10-17,12:00,58.2
2019-10-17,13:00,55.1
2019-10-17,14:00,54.2
2019-10-17,15:00,56.8
2019-10-17,16:00,57
2019-10-17,17:00,58
2019-10-17,18:00,61.8
2019-10-17,19:00,64.2
2019-10-17,20:00,65.8
2019-10-17,21:00,85.9
2019-10-17,22:00,84.8
2019-10-17,23:00,83.7
2019-10-18,00:00,81.6
2019-10-18,01:00,74.8
2019-10-18,02:00,76.1
2019-10-18,03:00,-999
2019-10-18,04:00,-999
2019-10-18,05:00,-999
2019-10-18,06:00,-999
2019-10-18,07:00,-999
2019-10-18,08:00,-999
2019-10-18,09:00,58.4
2019-10-18,10:00,51.9
2019-10-18,11:00,50.9
2019-10-18,12:00,49.3
2019-10-18,13:00,47.4
2019-10-18,14:00,47.4
2019-10-18,15:00,48.3
2019-10-18,16:00,48.2
2019-10-18,17:00,51.3
2019-10-18,18:00,60.8
2019-10-18,19:00,62.5
2019-10-18,20:00,64.1
2019-10-18,21:00,64.8
2019-10-18,22:00,61.9
2019-10-18,23:00,63.6
2019-10-19,00:00,64.7
2019-10-19,01:00,66.3
2019-10-19,02:00,67.8
2019-10-19,03:00,-999
2019-10-19,04:00,-999
2019-10-19,05:00,-999
2019-10-19,06:00,-999
2019-10-19,07:00,-999
2019-10-19,08:00,64.6
2019-10-19,09:00,60.9
2019-10-19,10:00,56.4
2019-10-19,11:00,56.2
2019-10-19,12:00,52.6
2019-10-19,13:00,50.6
2019-10-19,14:00,50.7
2019-10-19,15:00,49.8
2019-10-19,16:00,50.9
2019-10-19,17:00,52
2019-10-19,18:00,58.1
2019-10-19,19:00,59.7
2019-10-19,20:00,66.9
2019-10-19,21:00,67.6
2019-10-19,22:00,69.3
2019-10-19,23:00,68.7
2019-10-20,00:00,70
2019-10-20,01:00,70.5
2019-10-20,02:00,69.9
2019-10-20,03:00,-999
2019-10-20,04:00,-999
2019-10-20,05:00,-999
2019-10-20,06:00,-999
2019-10-20,07:00,-999
2019-10-20,08:00,69.5
2019-10-20,09:00,64.3
2019-10-20,10:00,60.8
2019-10-20,11:00,58.2
2019-10-20,12:00,55.1
2019-10-20,13:00,53.7
2019-10-20,14:00,49.7
2019-10-20,15:00,51
2019-10-20,16:00,51.7
2019-10-20,17:00,55.7
2019-10-20,18:00,60.9
2019-10-20,19:00,64.4
2019-10-20,20:00,66.1
2019-10-20,21:00,66.5
2019-10-20,22:00,67.4
2019-10-20,23:00,67.5
2019-10-21,00:00,70.9
2019-10-21,01:00,70.7
2019-10-21,02:00,70.3
2019-10-21,03:00,-999
2019-10-21,04:00,-999
2019-10-21,05:00,-999
2019-10-21,06:00,-999
2019-10-21,07:00,-999
2019-10-21,08:00,-999
2019-10-21,09:00,57.2
2019-10-21,10:00,52.2
2019-10-21,11:00,49.6
2019-10-21,12:00,50.4
2019-10-21,13:00,48.1
2019-10-21,14:00,43.1
2019-10-21,15:00,46.9
2019-10-21,16:00,44.5
2019-10-21,17:00,51.3
2019-10-21,18:00,61.5
2019-10-21,19:00,64.2
2019-10-21,20:00,65.1
2019-10-21,21:00,65.6
2019-10-21,22:00,66.5
2019-10-21,23:00,67.9
2019-10-22,00:00,71.3
2019-10-22,01:00,-999
2019-10-22,02:00,-999
2019-10-22,03:00,-999
2019-10-22,04:00,-999
2019-10-22,05:00,-999
2019-10-22,06:00,-999
2019-10-22,07:00,-999
2019-10-22,08:00,-999
2019-10-22,09:00,68.3
2019-10-22,10:00,58.2
2019-10-22,11:00,56.9
2019-10-22,12:00,54
2019-10-22,13:00,59.7
2019-10-22,14:00,59.4
2019-10-22,15:00,67.7
2019-10-22,16:00,68.9
2019-10-22,17:00,70.6
2019-10-22,18:00,73.1
2019-10-22,19:00,72.7
2019-10-22,20:00,72.3
2019-10-22,21:00,70.1
2019-10-22,22:00,-999
2019-10-22,23:00,-999
2019-10-23,00:00,-999
2019-10-23,01:00,-999
2019-10-23,02:00,-999
2019-10-23,03:00,-999
2019-10-23,04:00,-999
2019-10-23,05:00,-999
2019-10-23,06:00,-999
2019-10-23,07:00,-999
2019-10-23,08:00,-999
2019-10-23,09:00,63.5
2019-10-23,10:00,65.5
2019-10-23,11:00,58.8
2019-10-23,12:00,55.5
2019-10-23,13:00,61.3
2019-10-23,14:00,58.5
2019-10-23,15:00,51.8
2019-10-23,16:00,53.8
2019-10-23,17:00,53.7
2019-10-23,18:00,63.3
2019-10-23,19:00,66.9
2019-10-23,20:00,70.4
2019-10-23,21:00,72.2
2019-10-23,22:00,73.1
2019-10-23,23:00,-999
2019-10-24,00:00,-999
2019-10-24,01:00,-999
2019-10-24,02:00,-999
2019-10-24,03:00,-999
2019-10-24,04:00,-999
2019-10-24,05:00,-999
2019-10-24,06:00,-999
2019-10-24,07:00,-999
2019-10-24,08:00,-999
2019-10-24,09:00,65.6
2019-10-24,10:00,57.7
2019-10-24,11:00,52.2
2019-10-24,12:00,53
2019-10-24,13:00,59.3
2019-10-24,14:00,62.3
2019-10-24,15:00,59.4
2019-10-24,16:00,53
2019-10-24,17:00,57.9
2019-10-24,18:00,65.8
2019-10-24,19:00,68
2019-10-24,20:00,70.9
2019-10-24,21:00,72.1
2019-10-24,22:00,73.5
2019-10-24,23:00,-999
2019-10-25,00:00,-999
2019-10-25,01:00,-999
2019-10-25,02:00,-999
2019-10-25,03:00,-999
2019-10-25,04:00,-999
2019-10-25,05:00,-999
2019-10-25,06:00,-999
2019-10-25,07:00,-999
2019-10-25,08:00,-999
2019-10-25,09:00,-999
2019-10-25,10:00,61.8
2019-10-25,11:00,55.9
2019-10-25,12:00,49.5
2019-10-25,13:00,49.3
2019-10-25,14:00,45.1
2019-10-25,15:00,43.9
2019-10-25,16:00,43.4
2019-10-25,17:00,48.9
2019-10-25,18:00,63.6
2019-10-25,19:00,73.9
2019-10-25,20:00,72.5
2019-10-25,21:00,73.2
2019-10-25,22:00,-999
2019-10-25,23:00,-999
2019-10-26,00:00,-999
2019-10-26,01:00,-999
2019-10-26,02:00,-999
2019-10-26,03:00,-999
2019-10-26,04:00,-999
2019-10-26,05:00,-999
2019-10-26,06:00,-999
2019-10-26,07:00,-999
2019-10-26,08:00,-999
2019-10-26,09:00,-999
2019-10-26,10:00,57.4
2019-10-26,11:00,53.5
2019-10-26,12:00,47.4
2019-10-26,13:00,44.6
2019-10-26,14:00,46.9
2019-10-26,15:00,44.9
2019-10-26,16:00,48.9
2019-10-26,17:00,45.7
2019-10-26,18:00,55.7
2019-10-26,19:00,59.8
2019-10-26,20:00,65.1
2019-10-26,21:00,-999
2019-10-26,22:00,-999
2019-10-26,23:00,-999
2019-10-27,00:00,-999
2019-10-27,01:00,-999
2019-10-27,02:00,-999
2019-10-27,03:00,-999
2019-10-27,04:00,-999
2019-10-27,05:00,-999
2019-10-27,06:00,-999
2019-10-27,07:00,-999
2019-10-27,08:00,-999
2019-10-27,09:00,-999
2019-10-27,10:00,59.2
2019-10-27,11:00,55.9
2019-10-27,12:00,55.7
2019-10-27,13:00,50.8
2019-10-27,14:00,47.4
2019-10-27,15:00,48.4
2019-10-27,16:00,49.4
2019-10-27,17:00,51.8
2019-10-27,18:00,58.7
2019-10-27,19:00,75.2
2019-10-27,20:00,75.2
2019-10-27,21:00,-999
2019-10-27,22:00,-999
2019-10-27,23:00,-999
2019-10-28,00:00,-999
2019-10-28,01:00,-999
2019-10-28,02:00,-999
2019-10-28,03:00,-999
2019-10-28,04:00,-999
2019-10-28,05:00,-999
2019-10-28,06:00,-999
2019-10-28,07:00,-999
2019-10-28,08:00,-999
2019-10-28,09:00,-999
2019-10-28,10:00,60.8
2019-10-28,11:00,52.9
2019-10-28,12:00,51
2019-10-28,13:00,51.3
2019-10-28,14:00,49.8
2019-10-28,15:00,50.8
2019-10-28,16:00,49.7
2019-10-28,17:00,52.2
2019-10-28,18:00,62.2
2019-10-28,19:00,61.5
2019-10-28,20:00,-999
2019-10-28,21:00,-999
2019-10-28,22:00,-999
2019-10-28,23:00,-999
2019-10-29,00:00,-999
2019-10-29,01:00,-999
2019-10-29,02:00,-999
2019-10-29,03:00,-999
2019-10-29,04:00,-999
2019-10-29,05:00,-999
2019-10-29,06:00,-999
2019-10-29,07:00,-999
2019-10-29,08:00,-999
2019-10-29,09:00,68.9
2019-10-29,10:00,-999
2019-10-29,11:00,-999
2019-10-29,12:00,-999
2019-10-29,13:00,-999
2019-10-29,14:00,-999
2019-10-29,15:00,-999
2019-10-29,16:00,-999
2019-10-29,17:00,-999
2019-10-29,18:00,-999
2019-10-29,19:00,-999
2019-10-29,20:00,-999
2019-10-29,21:00,-999
2019-10-29,22:00,-999
2019-10-29,23:00,-999
2019-10-30,00:00,-999
2019-10-30,01:00,-999
2019-10-30,02:00,-999
2019-10-30,03:00,-999
2019-10-30,04:00,-999
2019-10-30,05:00,-999
2019-10-30,06:00,-999
2019-10-30,07:00,-999
2019-10-30,08:00,-999
2019-10-30,09:00,-999
2019-10-30,10:00,57.5
2019-10-30,11:00,55.9
2019-10-30,12:00,53.9
2019-10-30,13:00,51.9
2019-10-30,14:00,51.7
2019-10-30,15:00,53.9
2019-10-30,16:00,52.3
2019-10-30,17:00,54.4
2019-10-30,18:00,56
2019-10-30,19:00,60.9
2019-10-30,20:00,-999
2019-10-30,21:00,-999
2019-10-30,22:00,-999
2019-10-30,23:00,-999
2019-10-31,00:00,-999
2019-10-31,01:00,-999
2019-10-31,02:00,-999
2019-10-31,03:00,-999
2019-10-31,04:00,-999
2019-10-31,05:00,-999
2019-10-31,06:00,-999
2019-10-31,07:00,69.8
2019-10-31,08:00,-999
2019-10-31,09:00,56.3
2019-10-31,10:00,53
2019-10-31,11:00,44.4
2019-10-31,12:00,42.9
2019-10-31,13:00,46.9
2019-10-31,14:00,40.6
2019-10-31,15:00,42.9
2019-10-31,16:00,45.4
2019-10-31,17:00,45.3
2019-10-31,18:00,46.4
2019-10-31,19:00,59.4
2019-10-31,20:00,62.9
2019-10-31,21:00,60.9
2019-10-31,22:00,60.3
2019-10-31,23:00,61
